TimeCST,TemperatureF,Dew PointF,Humidity,Sea Level PressureIn,VisibilityMPH,Wind Direction,Wind SpeedMPH,Gust SpeedMPH,PrecipitationIn,Events,Conditions,WindDirDegrees,DateUTC
12:54 AM,30.0,27.0,88,30.40,4.0,Calm,Calm,-,N/A,,Clear,0,2012-11-18 06:54:00
1:54 AM,28.9,26.1,89,30.40,5.0,Calm,Calm,-,N/A,,Clear,0,2012-11-18 07:54:00
2:54 AM,28.0,25.0,88,30.40,6.0,Calm,Calm,-,N/A,,Clear,0,2012-11-18 08:54:00
3:54 AM,27.0,24.1,89,30.40,5.0,Calm,Calm,-,N/A,,Clear,0,2012-11-18 09:54:00
4:54 AM,27.0,25.0,92,30.40,4.0,Calm,Calm,-,N/A,,Clear,0,2012-11-18 10:54:00
5:54 AM,26.1,24.1,92,30.40,5.0,Calm,Calm,-,N/A,,Clear,0,2012-11-18 11:54:00
6:54 AM,25.0,23.0,92,30.41,6.0,Calm,Calm,-,N/A,,Clear,0,2012-11-18 12:54:00
7:54 AM,30.0,27.0,88,30.40,7.0,Calm,Calm,-,N/A,,Clear,0,2012-11-18 13:54:00
8:54 AM,37.9,32.0,79,30.41,8.0,Calm,Calm,-,N/A,,Partly Cloudy,0,2012-11-18 14:54:00
9:54 AM,48.9,37.0,64,30.40,10.0,Calm,Calm,-,N/A,,Clear,0,2012-11-18 15:54:00
10:54 AM,55.9,33.1,42,30.39,10.0,SE,4.6,-,N/A,,Clear,130,2012-11-18 16:54:00
11:54 AM,59.0,33.1,38,30.35,10.0,Calm,Calm,-,N/A,,Scattered Clouds,0,2012-11-18 17:54:00
12:54 PM,62.1,26.1,25,30.33,10.0,SSE,3.5,-,N/A,,Clear,160,2012-11-18 18:54:00
1:54 PM,63.0,21.9,21,30.31,10.0,South,6.9,-,N/A,,Scattered Clouds,170,2012-11-18 19:54:00
2:28 PM,62.6,32.0,32,30.28,10.0,ESE,5.8,-,N/A,,Scattered Clouds,120,2012-11-18 20:28:00
2:54 PM,62.1,28.9,29,30.29,10.0,ESE,8.1,-,N/A,,Scattered Clouds,120,2012-11-18 20:54:00
3:54 PM,60.1,34.0,38,30.29,10.0,East,8.1,-,N/A,,Mostly Cloudy,100,2012-11-18 21:54:00
4:54 PM,51.1,34.0,52,30.30,10.0,East,5.8,-,N/A,,Scattered Clouds,90,2012-11-18 22:54:00
5:54 PM,46.0,32.0,58,30.31,10.0,ESE,3.5,-,N/A,,Clear,110,2012-11-18 23:54:00
6:54 PM,51.1,30.9,46,30.32,10.0,SE,3.5,-,N/A,,Scattered Clouds,130,2012-11-19 00:54:00
7:54 PM,51.1,30.9,46,30.32,10.0,SSE,4.6,-,N/A,,Clear,150,2012-11-19 01:54:00
8:54 PM,39.9,32.0,73,30.33,10.0,Calm,Calm,-,N/A,,Scattered Clouds,0,2012-11-19 02:54:00
9:54 PM,37.9,32.0,79,30.32,10.0,Calm,Calm,-,N/A,,Clear,0,2012-11-19 03:54:00
10:54 PM,37.9,32.0,79,30.31,10.0,Calm,Calm,-,N/A,,Clear,0,2012-11-19 04:54:00
11:54 PM,37.9,33.1,83,30.29,10.0,East,4.6,-,N/A,,Clear,90,2012-11-19 05:54:00